Year,Month,Day,Hour,Minute,Value (Times are PST for temperature in C)
2018,07,24,00,00,19.10
2018,07,24,00,01,19.20
2018,07,24,00,02,19.20
2018,07,24,00,03,19.20
2018,07,24,00,04,19.30
2018,07,24,00,05,19.30
2018,07,24,00,06,19.30
2018,07,24,00,07,19.30
2018,07,24,00,08,19.30
2018,07,24,00,09,19.30
2018,07,24,00,10,19.30
2018,07,24,00,11,19.30
2018,07,24,00,12,19.30
2018,07,24,00,13,19.40
2018,07,24,00,14,19.40
2018,07,24,00,15,19.50
2018,07,24,00,16,19.50
2018,07,24,00,17,19.60
2018,07,24,00,18,19.60
2018,07,24,00,19,19.60
2018,07,24,00,20,19.70
2018,07,24,00,21,19.70
2018,07,24,00,22,19.70
2018,07,24,00,23,19.70
2018,07,24,00,24,19.60
2018,07,24,00,25,19.60
2018,07,24,00,26,19.50
2018,07,24,00,27,19.30
2018,07,24,00,28,19.20
2018,07,24,00,29,19.10
2018,07,24,00,30,19.00
2018,07,24,00,31,18.90
2018,07,24,00,32,18.90
2018,07,24,00,33,18.80
2018,07,24,00,34,18.70
2018,07,24,00,35,18.70
2018,07,24,00,36,18.60
2018,07,24,00,37,18.60
2018,07,24,00,38,18.50
2018,07,24,00,39,18.50
2018,07,24,00,40,18.40
2018,07,24,00,41,18.40
2018,07,24,00,42,18.30
2018,07,24,00,43,18.30
2018,07,24,00,44,18.20
2018,07,24,00,45,18.20
2018,07,24,00,46,18.20
2018,07,24,00,47,18.20
2018,07,24,00,48,18.10
2018,07,24,00,49,18.10
2018,07,24,00,50,18.10
2018,07,24,00,51,18.00
2018,07,24,00,52,17.90
2018,07,24,00,53,17.90
2018,07,24,00,54,17.90
2018,07,24,00,55,17.90
2018,07,24,00,56,17.90
2018,07,24,00,57,17.90
2018,07,24,00,58,17.90
2018,07,24,00,59,17.90
2018,07,24,01,00,17.90
2018,07,24,01,01,17.90
2018,07,24,01,02,17.90
2018,07,24,01,03,17.90
2018,07,24,01,04,17.90
2018,07,24,01,05,17.90
2018,07,24,01,06,17.90
2018,07,24,01,07,17.90
2018,07,24,01,08,17.90
2018,07,24,01,09,17.90
2018,07,24,01,10,17.90
2018,07,24,01,11,17.90
2018,07,24,01,12,17.90
2018,07,24,01,13,17.90
2018,07,24,01,14,17.90
2018,07,24,01,15,17.90
2018,07,24,01,16,17.90
2018,07,24,01,17,17.90
2018,07,24,01,18,17.90
2018,07,24,01,19,17.90
2018,07,24,01,20,17.90
2018,07,24,01,21,17.90
2018,07,24,01,22,17.90
2018,07,24,01,23,17.90
2018,07,24,01,24,17.90
2018,07,24,01,25,17.90
2018,07,24,01,26,17.90
2018,07,24,01,27,17.90
2018,07,24,01,28,17.90
2018,07,24,01,29,17.90
2018,07,24,01,30,17.90
2018,07,24,01,31,17.90
2018,07,24,01,32,17.90
2018,07,24,01,33,17.90
2018,07,24,01,34,17.90
2018,07,24,01,35,17.90
2018,07,24,01,36,17.80
2018,07,24,01,37,17.70
2018,07,24,01,38,17.70
2018,07,24,01,39,17.60
2018,07,24,01,40,17.60
2018,07,24,01,41,17.50
2018,07,24,01,42,17.50
2018,07,24,01,43,17.40
2018,07,24,01,44,17.40
2018,07,24,01,45,17.40
2018,07,24,01,46,17.30
2018,07,24,01,47,17.30
2018,07,24,01,48,17.30
2018,07,24,01,49,17.30
2018,07,24,01,50,17.30
2018,07,24,01,51,17.30
2018,07,24,01,52,17.30
2018,07,24,01,53,17.30
2018,07,24,01,54,17.30
2018,07,24,01,55,17.30
2018,07,24,01,56,17.30
2018,07,24,01,57,17.30
2018,07,24,01,58,17.20
2018,07,24,01,59,17.20
2018,07,24,02,00,17.20
2018,07,24,02,01,17.20
2018,07,24,02,02,17.20
2018,07,24,02,03,17.10
2018,07,24,02,04,17.10
2018,07,24,02,05,17.10
2018,07,24,02,06,17.10
2018,07,24,02,07,17.00
2018,07,24,02,08,17.00
2018,07,24,02,09,17.00
2018,07,24,02,10,17.00
2018,07,24,02,11,17.00
2018,07,24,02,12,17.00
2018,07,24,02,13,17.00
2018,07,24,02,14,17.00
2018,07,24,02,15,17.00
2018,07,24,02,16,16.90
2018,07,24,02,17,16.90
2018,07,24,02,18,16.90
2018,07,24,02,19,16.90
2018,07,24,02,20,16.90
2018,07,24,02,21,16.90
2018,07,24,02,22,16.90
2018,07,24,02,23,16.90
2018,07,24,02,24,16.90
2018,07,24,02,25,16.90
2018,07,24,02,26,16.90
2018,07,24,02,27,16.80
2018,07,24,02,28,16.80
2018,07,24,02,29,16.80
2018,07,24,02,30,16.80
2018,07,24,02,31,16.80
2018,07,24,02,32,16.80
2018,07,24,02,33,16.70
2018,07,24,02,34,16.70
2018,07,24,02,35,16.70
2018,07,24,02,36,16.70
2018,07,24,02,37,16.70
2018,07,24,02,38,16.70
2018,07,24,02,39,16.70
2018,07,24,02,40,16.60
2018,07,24,02,41,16.60
2018,07,24,02,42,16.60
2018,07,24,02,43,16.60
2018,07,24,02,44,16.60
2018,07,24,02,45,16.60
2018,07,24,02,46,16.60
2018,07,24,02,47,16.50
2018,07,24,02,48,16.40
2018,07,24,02,49,16.40
2018,07,24,02,50,16.40
2018,07,24,02,51,16.40
2018,07,24,02,52,16.40
2018,07,24,02,53,16.40
2018,07,24,02,54,16.40
2018,07,24,02,55,16.40
2018,07,24,02,56,16.30
2018,07,24,02,57,16.30
2018,07,24,02,58,16.30
2018,07,24,02,59,16.20
2018,07,24,03,00,16.20
2018,07,24,03,01,16.10
2018,07,24,03,02,16.10
2018,07,24,03,03,16.10
2018,07,24,03,04,16.10
2018,07,24,03,05,16.00
2018,07,24,03,06,15.90
2018,07,24,03,07,15.90
2018,07,24,03,08,15.90
2018,07,24,03,09,15.80
2018,07,24,03,10,15.80
2018,07,24,03,11,15.80
2018,07,24,03,12,15.80
2018,07,24,03,13,15.80
2018,07,24,03,14,15.80
2018,07,24,03,15,15.80
2018,07,24,03,16,15.80
2018,07,24,03,17,15.80
2018,07,24,03,18,15.80
2018,07,24,03,19,15.70
2018,07,24,03,20,15.70
2018,07,24,03,21,15.70
2018,07,24,03,22,15.70
2018,07,24,03,23,15.60
2018,07,24,03,24,15.60
2018,07,24,03,25,15.60
2018,07,24,03,26,15.60
2018,07,24,03,27,15.60
2018,07,24,03,28,15.60
2018,07,24,03,29,15.60
2018,07,24,03,30,15.50
2018,07,24,03,31,15.50
2018,07,24,03,32,15.50
2018,07,24,03,33,15.50
2018,07,24,03,34,15.50
2018,07,24,03,35,15.50
2018,07,24,03,36,15.50
2018,07,24,03,37,15.50
2018,07,24,03,38,15.50
2018,07,24,03,39,15.50
2018,07,24,03,40,15.50
2018,07,24,03,41,15.50
2018,07,24,03,42,15.40
2018,07,24,03,43,15.40
2018,07,24,03,44,15.40
2018,07,24,03,45,15.40
2018,07,24,03,46,15.40
2018,07,24,03,47,15.30
2018,07,24,03,48,15.30
2018,07,24,03,49,15.30
2018,07,24,03,50,15.30
2018,07,24,03,51,15.30
2018,07,24,03,52,15.30
2018,07,24,03,53,15.30
2018,07,24,03,54,15.30
2018,07,24,03,55,15.30
2018,07,24,03,56,15.30
2018,07,24,03,57,15.30
2018,07,24,03,58,15.30
2018,07,24,03,59,15.30
2018,07,24,04,00,15.30
2018,07,24,04,01,15.30
2018,07,24,04,02,15.20
2018,07,24,04,03,15.20
2018,07,24,04,04,15.20
2018,07,24,04,05,15.20
2018,07,24,04,06,15.20
2018,07,24,04,07,15.20
2018,07,24,04,08,15.10
2018,07,24,04,09,15.10
2018,07,24,04,10,15.10
2018,07,24,04,11,15.10
2018,07,24,04,12,15.00
2018,07,24,04,13,15.00
2018,07,24,04,14,15.00
2018,07,24,04,15,14.90
2018,07,24,04,16,14.90
2018,07,24,04,17,14.90
2018,07,24,04,18,14.80
2018,07,24,04,19,14.80
2018,07,24,04,20,14.80
2018,07,24,04,21,14.80
2018,07,24,04,22,14.80
2018,07,24,04,23,14.80
2018,07,24,04,24,14.80
2018,07,24,04,25,14.80
2018,07,24,04,26,14.80
2018,07,24,04,27,14.80
2018,07,24,04,28,14.80
2018,07,24,04,29,14.80
2018,07,24,04,30,14.80
2018,07,24,04,31,14.70
2018,07,24,04,32,14.70
2018,07,24,04,33,14.70
2018,07,24,04,34,14.70
2018,07,24,04,35,14.70
2018,07,24,04,36,14.70
2018,07,24,04,37,14.70
2018,07,24,04,38,14.60
2018,07,24,04,39,14.60
2018,07,24,04,40,14.60
2018,07,24,04,41,14.60
2018,07,24,04,42,14.60
2018,07,24,04,43,14.60
2018,07,24,04,44,14.60
2018,07,24,04,45,14.60
2018,07,24,04,46,14.60
2018,07,24,04,47,14.50
2018,07,24,04,48,14.50
2018,07,24,04,49,14.50
2018,07,24,04,50,14.50
2018,07,24,04,51,14.50
2018,07,24,04,52,14.50
2018,07,24,04,53,14.50
2018,07,24,04,54,14.50
2018,07,24,04,55,14.50
2018,07,24,04,56,14.50
2018,07,24,04,57,14.50
2018,07,24,04,58,14.50
2018,07,24,04,59,14.50
2018,07,24,05,00,14.50
2018,07,24,05,01,14.40
2018,07,24,05,02,14.40
2018,07,24,05,03,14.40
2018,07,24,05,04,14.40
2018,07,24,05,05,14.30
2018,07,24,05,06,14.30
2018,07,24,05,07,14.30
2018,07,24,05,08,14.30
2018,07,24,05,09,14.30
2018,07,24,05,10,14.20
2018,07,24,05,11,14.20
2018,07,24,05,12,14.20
2018,07,24,05,13,14.20
2018,07,24,05,14,14.20
2018,07,24,05,15,14.20
2018,07,24,05,16,14.20
2018,07,24,05,17,14.20
2018,07,24,05,18,14.20
2018,07,24,05,19,14.20
2018,07,24,05,20,14.20
2018,07,24,05,21,14.10
2018,07,24,05,22,14.10
2018,07,24,05,23,14.10
2018,07,24,05,24,14.10
2018,07,24,05,25,14.10
2018,07,24,05,26,14.00
2018,07,24,05,27,14.00
2018,07,24,05,28,14.00
2018,07,24,05,29,14.00
2018,07,24,05,30,14.00
2018,07,24,05,31,13.90
2018,07,24,05,32,13.90
2018,07,24,05,33,13.90
2018,07,24,05,34,13.90
2018,07,24,05,35,13.80
2018,07,24,05,36,13.80
2018,07,24,05,37,13.80
2018,07,24,05,38,13.70
2018,07,24,05,39,13.70
2018,07,24,05,40,13.70
2018,07,24,05,41,13.70
2018,07,24,05,42,13.70
2018,07,24,05,43,13.70
2018,07,24,05,44,13.70
2018,07,24,05,45,13.70
2018,07,24,05,46,13.70
2018,07,24,05,47,13.60
2018,07,24,05,48,13.60
2018,07,24,05,49,13.60
2018,07,24,05,50,13.50
2018,07,24,05,51,13.50
2018,07,24,05,52,13.50
2018,07,24,05,53,13.50
2018,07,24,05,54,13.50
2018,07,24,05,55,13.50
2018,07,24,05,56,13.50
2018,07,24,05,57,13.50
2018,07,24,05,58,13.50
2018,07,24,05,59,13.50
2018,07,24,06,00,13.50
2018,07,24,06,01,13.50
2018,07,24,06,02,13.50
2018,07,24,06,03,13.50
2018,07,24,06,04,13.50
2018,07,24,06,05,13.50
2018,07,24,06,06,13.60
2018,07,24,06,07,13.60
2018,07,24,06,08,13.60
2018,07,24,06,09,13.60
2018,07,24,06,10,13.60
2018,07,24,06,11,13.70
2018,07,24,06,12,13.70
2018,07,24,06,13,13.70
2018,07,24,06,14,13.70
2018,07,24,06,15,13.80
2018,07,24,06,16,13.80
2018,07,24,06,17,13.80
2018,07,24,06,18,13.80
2018,07,24,06,19,13.80
2018,07,24,06,20,13.90
2018,07,24,06,21,13.90
2018,07,24,06,22,13.90
2018,07,24,06,23,13.80
2018,07,24,06,24,13.80
2018,07,24,06,25,13.80
2018,07,24,06,26,13.80
2018,07,24,06,27,13.80
2018,07,24,06,28,13.80
2018,07,24,06,29,13.80
2018,07,24,06,30,13.70
2018,07,24,06,31,13.70
2018,07,24,06,32,13.70
2018,07,24,06,33,13.70
2018,07,24,06,34,13.70
2018,07,24,06,35,13.70
2018,07,24,06,36,13.70
2018,07,24,06,37,13.70
2018,07,24,06,38,13.70
2018,07,24,06,39,13.70
2018,07,24,06,40,13.70
2018,07,24,06,41,13.70
2018,07,24,06,42,13.70
2018,07,24,06,43,13.70
2018,07,24,06,44,13.70
2018,07,24,06,45,13.80
2018,07,24,06,46,13.80
2018,07,24,06,47,13.90
2018,07,24,06,48,13.90
2018,07,24,06,49,13.90
2018,07,24,06,50,13.90
2018,07,24,06,51,14.00
2018,07,24,06,52,14.00
2018,07,24,06,53,14.10
2018,07,24,06,54,14.10
2018,07,24,06,55,14.10
2018,07,24,06,56,14.10
2018,07,24,06,57,14.20
2018,07,24,06,58,14.20
2018,07,24,06,59,14.20
2018,07,24,07,00,14.20
2018,07,24,07,01,14.20
2018,07,24,07,02,14.20
2018,07,24,07,03,14.20
2018,07,24,07,04,14.30
2018,07,24,07,05,14.40
2018,07,24,07,06,14.40
2018,07,24,07,07,14.50
2018,07,24,07,08,14.50
2018,07,24,07,09,14.60
2018,07,24,07,10,14.60
2018,07,24,07,11,14.60
2018,07,24,07,12,14.70
2018,07,24,07,13,14.70
2018,07,24,07,14,14.80
2018,07,24,07,15,14.80
2018,07,24,07,16,14.90
2018,07,24,07,17,15.00
2018,07,24,07,18,15.00
2018,07,24,07,19,15.10
2018,07,24,07,20,15.20
2018,07,24,07,21,15.20
2018,07,24,07,22,15.30
2018,07,24,07,23,15.30
2018,07,24,07,24,15.40
2018,07,24,07,25,15.50
2018,07,24,07,26,15.50
2018,07,24,07,27,15.50
2018,07,24,07,28,15.60
2018,07,24,07,29,15.70
2018,07,24,07,30,15.80
2018,07,24,07,31,15.80
2018,07,24,07,32,15.80
2018,07,24,07,33,15.80
2018,07,24,07,34,15.80
2018,07,24,07,35,15.90
2018,07,24,07,36,15.90
2018,07,24,07,37,16.00
2018,07,24,07,38,16.00
2018,07,24,07,39,15.90
2018,07,24,07,40,15.90
2018,07,24,07,41,15.90
2018,07,24,07,42,15.80
2018,07,24,07,43,15.80
2018,07,24,07,44,15.70
2018,07,24,07,45,15.60
2018,07,24,07,46,15.50
2018,07,24,07,47,15.40
2018,07,24,07,48,15.30
2018,07,24,07,49,15.30
2018,07,24,07,50,15.30
2018,07,24,07,51,15.30
2018,07,24,07,52,15.30
2018,07,24,07,53,15.30
2018,07,24,07,54,15.20
2018,07,24,07,55,15.20
2018,07,24,07,56,15.20
2018,07,24,07,57,15.20
2018,07,24,07,58,15.20
2018,07,24,07,59,15.30
2018,07,24,08,00,15.30
2018,07,24,08,01,15.30
2018,07,24,08,02,15.30
2018,07,24,08,03,15.30
2018,07,24,08,04,15.30
2018,07,24,08,05,15.40
2018,07,24,08,06,15.50
2018,07,24,08,07,15.50
2018,07,24,08,08,15.50
2018,07,24,08,09,15.50
2018,07,24,08,10,15.50
2018,07,24,08,11,15.40
2018,07,24,08,12,15.40
2018,07,24,08,13,15.50
2018,07,24,08,14,15.50
2018,07,24,08,15,15.50
2018,07,24,08,16,15.60
2018,07,24,08,17,15.60
2018,07,24,08,18,15.70
2018,07,24,08,19,15.70
2018,07,24,08,20,15.70
2018,07,24,08,21,15.80
2018,07,24,08,22,15.80
2018,07,24,08,23,15.80
2018,07,24,08,24,15.90
2018,07,24,08,25,16.00
2018,07,24,08,26,16.10
2018,07,24,08,27,16.10
2018,07,24,08,28,16.20
2018,07,24,08,29,16.20
2018,07,24,08,30,16.20
2018,07,24,08,31,16.20
2018,07,24,08,32,16.30
2018,07,24,08,33,16.30
2018,07,24,08,34,16.30
2018,07,24,08,35,16.40
2018,07,24,08,36,16.40
2018,07,24,08,37,16.30
2018,07,24,08,38,16.30
2018,07,24,08,39,16.30
2018,07,24,08,40,16.30
2018,07,24,08,41,16.30
2018,07,24,08,42,16.40
2018,07,24,08,43,16.40
2018,07,24,08,44,16.40
2018,07,24,08,45,16.40
2018,07,24,08,46,16.40
2018,07,24,08,47,16.40
2018,07,24,08,48,16.40
2018,07,24,08,49,16.40
2018,07,24,08,50,16.40
2018,07,24,08,51,16.50
2018,07,24,08,52,16.60
2018,07,24,08,53,16.70
2018,07,24,08,54,16.70
2018,07,24,08,55,16.70
2018,07,24,08,56,16.70
2018,07,24,08,57,16.70
2018,07,24,08,58,16.80
2018,07,24,08,59,16.80
2018,07,24,09,00,16.80
2018,07,24,09,01,16.80
2018,07,24,09,02,16.90
2018,07,24,09,03,16.90
2018,07,24,09,04,17.00
2018,07,24,09,05,17.00
2018,07,24,09,06,17.00
2018,07,24,09,07,17.10
2018,07,24,09,08,17.20
2018,07,24,09,09,17.30
2018,07,24,09,10,17.30
2018,07,24,09,11,17.40
2018,07,24,09,12,17.50
2018,07,24,09,13,17.60
2018,07,24,09,14,17.70
2018,07,24,09,15,17.90
2018,07,24,09,16,17.90
2018,07,24,09,17,18.00
2018,07,24,09,18,18.10
2018,07,24,09,19,18.10
2018,07,24,09,20,18.10
2018,07,24,09,21,18.10
2018,07,24,09,22,18.00
2018,07,24,09,23,17.90
2018,07,24,09,24,17.80
2018,07,24,09,25,17.60
2018,07,24,09,26,17.40
2018,07,24,09,27,17.30
2018,07,24,09,28,17.20
2018,07,24,09,29,17.10
2018,07,24,09,30,17.10
2018,07,24,09,31,17.10
2018,07,24,09,32,17.10
2018,07,24,09,33,17.10
2018,07,24,09,34,17.00
2018,07,24,09,35,17.00
2018,07,24,09,36,17.00
2018,07,24,09,37,17.00
2018,07,24,09,38,17.00
2018,07,24,09,39,17.00
2018,07,24,09,40,17.10
2018,07,24,09,41,17.00
2018,07,24,09,42,17.00
2018,07,24,09,43,17.10
2018,07,24,09,44,17.10
2018,07,24,09,45,17.00
2018,07,24,09,46,17.10
2018,07,24,09,47,17.10
2018,07,24,09,48,17.10
2018,07,24,09,49,17.10
2018,07,24,09,50,17.10
2018,07,24,09,51,17.20
2018,07,24,09,52,17.30
2018,07,24,09,53,17.40
2018,07,24,09,54,17.50
2018,07,24,09,55,17.50
2018,07,24,09,56,17.50
2018,07,24,09,57,17.40
2018,07,24,09,58,17.30
2018,07,24,09,59,17.30
2018,07,24,10,00,17.40
2018,07,24,10,01,17.50
2018,07,24,10,02,17.60
2018,07,24,10,03,17.60
2018,07,24,10,04,17.60
2018,07,24,10,05,17.70
2018,07,24,10,06,17.70
2018,07,24,10,07,17.80
2018,07,24,10,08,17.80
2018,07,24,10,09,17.80
2018,07,24,10,10,17.80
2018,07,24,10,11,17.70
2018,07,24,10,12,17.80
2018,07,24,10,13,17.70
2018,07,24,10,14,17.70
2018,07,24,10,15,17.70
2018,07,24,10,16,17.80
2018,07,24,10,17,17.90
2018,07,24,10,18,17.90
2018,07,24,10,19,18.00
2018,07,24,10,20,18.20
2018,07,24,10,21,18.40
2018,07,24,10,22,18.60
2018,07,24,10,23,18.70
2018,07,24,10,24,18.70
2018,07,24,10,25,18.80
2018,07,24,10,26,18.70
2018,07,24,10,27,18.70
2018,07,24,10,28,18.80
2018,07,24,10,29,18.80
2018,07,24,10,30,18.70
2018,07,24,10,31,18.60
2018,07,24,10,32,18.60
2018,07,24,10,33,18.60
2018,07,24,10,34,18.60
2018,07,24,10,35,18.60
2018,07,24,10,36,18.60
2018,07,24,10,37,18.70
2018,07,24,10,38,18.70
2018,07,24,10,39,18.70
2018,07,24,10,40,18.60
2018,07,24,10,41,18.50
2018,07,24,10,42,18.50
2018,07,24,10,43,18.60
2018,07,24,10,44,18.70
2018,07,24,10,45,18.70
2018,07,24,10,46,18.70
2018,07,24,10,47,18.70
2018,07,24,10,48,18.80
2018,07,24,10,49,18.80
2018,07,24,10,50,18.80
2018,07,24,10,51,18.80
2018,07,24,10,52,18.80
2018,07,24,10,53,18.80
2018,07,24,10,54,18.80
2018,07,24,10,55,18.90
2018,07,24,10,56,18.80
2018,07,24,10,57,18.60
2018,07,24,10,58,18.50
2018,07,24,10,59,18.30
2018,07,24,11,00,18.20
2018,07,24,11,01,18.20
2018,07,24,11,02,18.40
2018,07,24,11,03,18.50
2018,07,24,11,04,18.60
2018,07,24,11,05,18.80
2018,07,24,11,06,18.90
2018,07,24,11,07,18.80
2018,07,24,11,08,18.70
2018,07,24,11,09,18.70
2018,07,24,11,10,18.70
2018,07,24,11,11,18.60
2018,07,24,11,12,18.50
2018,07,24,11,13,18.50
2018,07,24,11,14,18.50
2018,07,24,11,15,18.60
2018,07,24,11,16,18.70
2018,07,24,11,17,18.80
2018,07,24,11,18,18.90
2018,07,24,11,19,18.80
2018,07,24,11,20,18.70
2018,07,24,11,21,18.70
2018,07,24,11,22,18.60
2018,07,24,11,23,18.60
2018,07,24,11,24,18.50
2018,07,24,11,25,18.60
2018,07,24,11,26,18.60
2018,07,24,11,27,18.70
2018,07,24,11,28,18.80
2018,07,24,11,29,18.90
2018,07,24,11,30,19.00
2018,07,24,11,31,19.20
2018,07,24,11,32,19.30
2018,07,24,11,33,19.30
2018,07,24,11,34,19.20
2018,07,24,11,35,19.30
2018,07,24,11,36,19.40
2018,07,24,11,37,19.30
2018,07,24,11,38,19.20
2018,07,24,11,39,19.10
2018,07,24,11,40,19.10
2018,07,24,11,41,19.10
2018,07,24,11,42,18.90
2018,07,24,11,43,18.90
2018,07,24,11,44,18.90
2018,07,24,11,45,19.00
2018,07,24,11,46,19.10
2018,07,24,11,47,19.10
2018,07,24,11,48,19.10
2018,07,24,11,49,19.10
2018,07,24,11,50,19.10
2018,07,24,11,51,19.30
2018,07,24,11,52,19.50
2018,07,24,11,53,19.60
2018,07,24,11,54,19.70
2018,07,24,11,55,19.80
2018,07,24,11,56,19.70
2018,07,24,11,57,19.60
2018,07,24,11,58,19.60
2018,07,24,11,59,19.50
2018,07,24,12,00,19.50
2018,07,24,12,01,19.50
2018,07,24,12,02,19.60
2018,07,24,12,03,19.70
2018,07,24,12,04,19.80
2018,07,24,12,05,19.90
2018,07,24,12,06,20.00
2018,07,24,12,07,20.10
2018,07,24,12,08,20.00
2018,07,24,12,09,19.90
2018,07,24,12,10,19.90
2018,07,24,12,11,19.80
2018,07,24,12,12,19.90
2018,07,24,12,13,19.80
2018,07,24,12,14,19.80
2018,07,24,12,15,19.90
2018,07,24,12,16,20.10
2018,07,24,12,17,20.20
2018,07,24,12,18,20.40
2018,07,24,12,19,20.50
2018,07,24,12,20,20.60
2018,07,24,12,21,20.70
2018,07,24,12,22,20.70
2018,07,24,12,23,20.80
2018,07,24,12,24,20.90
2018,07,24,12,25,21.00
2018,07,24,12,26,21.10
2018,07,24,12,27,21.20
2018,07,24,12,28,21.10
2018,07,24,12,29,21.10
2018,07,24,12,30,21.00
2018,07,24,12,31,21.00
2018,07,24,12,32,20.90
2018,07,24,12,33,21.00
2018,07,24,12,34,20.90
2018,07,24,12,35,20.90
2018,07,24,12,36,21.00
2018,07,24,12,37,21.00
2018,07,24,12,38,21.20
2018,07,24,12,39,21.30
2018,07,24,12,40,21.30
2018,07,24,12,41,21.30
2018,07,24,12,42,21.40
2018,07,24,12,43,21.40
2018,07,24,12,44,21.50
2018,07,24,12,45,21.50
2018,07,24,12,46,21.40
2018,07,24,12,47,21.40
2018,07,24,12,48,21.50
2018,07,24,12,49,21.60
2018,07,24,12,50,21.60
2018,07,24,12,51,21.80
2018,07,24,12,52,22.00
2018,07,24,12,53,22.00
2018,07,24,12,54,22.10
2018,07,24,12,55,22.10
2018,07,24,12,56,22.00
2018,07,24,12,57,22.00
2018,07,24,12,58,22.10
2018,07,24,12,59,22.20
2018,07,24,13,00,22.20
2018,07,24,13,01,22.20
2018,07,24,13,02,22.10
2018,07,24,13,03,22.10
2018,07,24,13,04,22.20
2018,07,24,13,05,22.20
2018,07,24,13,06,22.20
2018,07,24,13,07,22.20
2018,07,24,13,08,22.20
2018,07,24,13,09,22.20
2018,07,24,13,10,22.30
2018,07,24,13,11,22.40
2018,07,24,13,12,22.40
2018,07,24,13,13,22.40
2018,07,24,13,14,22.50
2018,07,24,13,15,22.50
2018,07,24,13,16,22.50
2018,07,24,13,17,22.50
2018,07,24,13,18,22.60
2018,07,24,13,19,22.60
2018,07,24,13,20,22.60
2018,07,24,13,21,22.70
2018,07,24,13,22,22.80
2018,07,24,13,23,22.80
2018,07,24,13,24,22.70
2018,07,24,13,25,22.50
2018,07,24,13,26,22.40
2018,07,24,13,27,22.30
2018,07,24,13,28,22.30
2018,07,24,13,29,22.30
2018,07,24,13,30,22.30
2018,07,24,13,31,22.40
2018,07,24,13,32,22.50
2018,07,24,13,33,22.60
2018,07,24,13,34,22.50
2018,07,24,13,35,22.60
2018,07,24,13,36,22.60
2018,07,24,13,37,22.80
2018,07,24,13,38,22.90
2018,07,24,13,39,22.90
2018,07,24,13,40,22.90
2018,07,24,13,41,22.80
2018,07,24,13,42,22.90
2018,07,24,13,43,23.00
2018,07,24,13,44,23.20
2018,07,24,13,45,23.40
2018,07,24,13,46,23.60
2018,07,24,13,47,23.60
2018,07,24,13,48,23.60
2018,07,24,13,49,23.70
2018,07,24,13,50,23.60
2018,07,24,13,51,23.60
2018,07,24,13,52,23.60
2018,07,24,13,53,23.50
2018,07,24,13,54,23.40
2018,07,24,13,55,23.30
2018,07,24,13,56,23.30
2018,07,24,13,57,23.30
2018,07,24,13,58,23.40
2018,07,24,13,59,23.50
2018,07,24,14,00,23.60
2018,07,24,14,01,23.60
2018,07,24,14,02,23.60
2018,07,24,14,03,23.60
2018,07,24,14,04,23.80
2018,07,24,14,05,23.90
2018,07,24,14,06,24.00
2018,07,24,14,07,24.00
2018,07,24,14,08,24.00
2018,07,24,14,09,24.10
2018,07,24,14,10,24.10
2018,07,24,14,11,24.10
2018,07,24,14,12,24.10
2018,07,24,14,13,24.10
2018,07,24,14,14,24.00
2018,07,24,14,15,24.10
2018,07,24,14,16,24.10
2018,07,24,14,17,24.10
2018,07,24,14,18,24.10
2018,07,24,14,19,24.00
2018,07,24,14,20,23.90
2018,07,24,14,21,23.80
2018,07,24,14,22,23.70
2018,07,24,14,23,23.70
2018,07,24,14,24,23.80
2018,07,24,14,25,23.90
2018,07,24,14,26,24.00
2018,07,24,14,27,24.10
2018,07,24,14,28,24.10
2018,07,24,14,29,24.10
2018,07,24,14,30,24.10
2018,07,24,14,31,24.10
2018,07,24,14,32,24.10
2018,07,24,14,33,24.10
2018,07,24,14,34,24.10
2018,07,24,14,35,24.10
2018,07,24,14,36,24.10
2018,07,24,14,37,24.10
2018,07,24,14,38,24.20
2018,07,24,14,39,24.30
2018,07,24,14,40,24.20
2018,07,24,14,41,24.10
2018,07,24,14,42,24.10
2018,07,24,14,43,24.00
2018,07,24,14,44,23.90
2018,07,24,14,45,23.90
2018,07,24,14,46,23.80
2018,07,24,14,47,23.80
2018,07,24,14,48,23.80
2018,07,24,14,49,23.90
2018,07,24,14,50,24.10
2018,07,24,14,51,24.20
2018,07,24,14,52,24.30
2018,07,24,14,53,24.30
2018,07,24,14,54,24.30
2018,07,24,14,55,24.40
2018,07,24,14,56,24.50
2018,07,24,14,57,24.60
2018,07,24,14,58,24.70
2018,07,24,14,59,24.80
2018,07,24,15,00,24.80
2018,07,24,15,01,24.70
2018,07,24,15,02,24.70
2018,07,24,15,03,24.60
2018,07,24,15,04,24.60
2018,07,24,15,05,24.50
2018,07,24,15,06,24.50
2018,07,24,15,07,24.60
2018,07,24,15,08,24.70
2018,07,24,15,09,24.80
2018,07,24,15,10,24.90
2018,07,24,15,11,25.00
2018,07,24,15,12,25.10
2018,07,24,15,13,25.10
2018,07,24,15,14,25.00
2018,07,24,15,15,25.00
2018,07,24,15,16,25.10
2018,07,24,15,17,25.10
2018,07,24,15,18,25.20
2018,07,24,15,19,25.40
2018,07,24,15,20,25.50
2018,07,24,15,21,25.50
2018,07,24,15,22,25.50
2018,07,24,15,23,25.50
2018,07,24,15,24,25.60
2018,07,24,15,25,25.60
2018,07,24,15,26,25.60
2018,07,24,15,27,25.60
2018,07,24,15,28,25.50
2018,07,24,15,29,25.50
2018,07,24,15,30,25.50
2018,07,24,15,31,25.60
2018,07,24,15,32,25.80
2018,07,24,15,33,25.90
2018,07,24,15,34,26.10
2018,07,24,15,35,26.10
2018,07,24,15,36,26.20
2018,07,24,15,37,26.20
2018,07,24,15,38,26.30
2018,07,24,15,39,26.30
2018,07,24,15,40,26.20
2018,07,24,15,41,26.00
2018,07,24,15,42,25.90
2018,07,24,15,43,25.90
2018,07,24,15,44,25.90
2018,07,24,15,45,25.90
2018,07,24,15,46,25.70
2018,07,24,15,47,25.60
2018,07,24,15,48,25.60
2018,07,24,15,49,25.70
2018,07,24,15,50,25.80
2018,07,24,15,51,26.00
2018,07,24,15,52,26.20
2018,07,24,15,53,26.30
2018,07,24,15,54,26.40
2018,07,24,15,55,26.50
2018,07,24,15,56,26.60
2018,07,24,15,57,26.60
2018,07,24,15,58,26.70
2018,07,24,15,59,26.70
2018,07,24,16,00,26.70
2018,07,24,16,01,26.50
2018,07,24,16,02,26.40
2018,07,24,16,03,26.20
2018,07,24,16,04,26.00
2018,07,24,16,05,25.90
2018,07,24,16,06,25.90
2018,07,24,16,07,25.90
2018,07,24,16,08,26.00
2018,07,24,16,09,26.10
2018,07,24,16,10,26.20
2018,07,24,16,11,26.30
2018,07,24,16,12,26.20
2018,07,24,16,13,26.20
2018,07,24,16,14,26.30
2018,07,24,16,15,26.20
2018,07,24,16,16,26.30
2018,07,24,16,17,26.20
2018,07,24,16,18,26.20
2018,07,24,16,19,26.00
2018,07,24,16,20,25.80
2018,07,24,16,21,25.70
2018,07,24,16,22,25.50
2018,07,24,16,23,25.50
2018,07,24,16,24,25.60
2018,07,24,16,25,25.70
2018,07,24,16,26,25.80
2018,07,24,16,27,25.70
2018,07,24,16,28,25.70
2018,07,24,16,29,25.70
2018,07,24,16,30,25.70
2018,07,24,16,31,25.80
2018,07,24,16,32,25.80
2018,07,24,16,33,25.80
2018,07,24,16,34,25.80
2018,07,24,16,35,25.80
2018,07,24,16,36,25.90
2018,07,24,16,37,25.80
2018,07,24,16,38,25.90
2018,07,24,16,39,25.90
2018,07,24,16,40,26.00
2018,07,24,16,41,26.00
2018,07,24,16,42,26.10
2018,07,24,16,43,26.20
2018,07,24,16,44,26.10
2018,07,24,16,45,25.90
2018,07,24,16,46,25.90
2018,07,24,16,47,25.90
2018,07,24,16,48,25.80
2018,07,24,16,49,25.70
2018,07,24,16,50,25.60
2018,07,24,16,51,25.50
2018,07,24,16,52,25.60
2018,07,24,16,53,25.50
2018,07,24,16,54,25.40
2018,07,24,16,55,25.30
2018,07,24,16,56,25.10
2018,07,24,16,57,24.90
2018,07,24,16,58,24.90
2018,07,24,16,59,24.90
2018,07,24,17,00,24.90
2018,07,24,17,01,25.00
2018,07,24,17,02,25.20
2018,07,24,17,03,25.40
2018,07,24,17,04,25.60
2018,07,24,17,05,25.80
2018,07,24,17,06,25.90
2018,07,24,17,07,26.10
2018,07,24,17,08,26.20
2018,07,24,17,09,26.20
2018,07,24,17,10,26.30
2018,07,24,17,11,26.30
2018,07,24,17,12,26.40
2018,07,24,17,13,26.40
2018,07,24,17,14,26.40
2018,07,24,17,15,26.40
2018,07,24,17,16,26.30
2018,07,24,17,17,26.30
2018,07,24,17,18,26.30
2018,07,24,17,19,26.30